This is the latest recevied weather packets stored in our database for station/object DC0PP-10. If no packets are shown the sender has not sent any weather packets the latest 10 day(s).
| Time | Temp. | Humidity | Pressure | Rain* | Wind** | Luminosity | Snow |
|---|---|---|---|---|---|---|---|
| 1777291831 | 24.44° C | 35% | 1020.9 hPa | - | - | - | - |
| 1777290931 | 24.44° C | 37% | 1021.1 hPa | - | - | - | - |
| 1777290031 | 23.89° C | 39% | 1021.3 hPa | - | - | - | - |
| 1777289131 | 24.44° C | 40% | 1021.4 hPa | - | - | - | - |
| 1777288231 | 23.89° C | 41% | 1021.4 hPa | - | - | - | - |
| 1777287330 | 23.33° C | 41% | 1021.5 hPa | - | - | - | - |
| 1777286430 | 23.33° C | 41% | 1021.7 hPa | - | - | - | - |
| 1777285530 | 23.89° C | 40% | 1021.8 hPa | - | - | - | - |
| 1777284630 | 23.33° C | 40% | 1022.1 hPa | - | - | - | - |
| 1777283730 | 23.33° C | 40% | 1022.3 hPa | - | - | - | - |
| 1777282830 | 23.33° C | 39% | 1022.3 hPa | - | - | - | - |
| 1777281930 | 23.89° C | 38% | 1022.4 hPa | - | - | - | - |
| 1777281029 | 22.78° C | 42% | 1022.7 hPa | - | - | - | - |
| 1777280129 | 22.78° C | 41% | 1022.7 hPa | - | - | - | - |
| 1777279229 | 22.22° C | 41% | 1022.8 hPa | - | - | - | - |
| 1777278329 | 22.22° C | 42% | 1022.8 hPa | - | - | - | - |
| 1777277429 | 22.22° C | 44% | 1022.8 hPa | - | - | - | - |
| 1777276529 | 21.67° C | 42% | 1022.8 hPa | - | - | - | - |
| 1777275629 | 21.11° C | 41% | 1022.8 hPa | - | - | - | - |
| 1777274728 | 19.44° C | 44% | 1022.8 hPa | - | - | - | - |
| 1777273828 | 19.44° C | 47% | 1023 hPa | - | - | - | - |
* Rain since midnight (hover to see other rain measurements)
** Current wind speed in m/s (hover to see current wind gust speed)